Wind_Speed
43 41 40 39 39 39 40 40 39 38 37 34 34 37 34 28 24 18 14 11 10 11 13 11 14 14 14 10 6 14 16 14 16 17 13 15 16 13 12 16 17 19 17 20
48 47 46 44 43 43 43 43 40 37 34 33 35 34 28 22 15 16 14 10 10 10 11 12 12 15 14 13 8 7 13 16 17 16 16 14 16 12 14 16 17 20 19 20
51 50 49 47 45 45 44 42 39 37 36 35 34 27 20 14 11 10 13 12 9 12 16 15 13 14 15 13 12 10 9 15 22 25 24 22 16 13 15 16 19 19 19 20
52 51 49 48 47 46 43 42 40 36 33 25 19 17 14 11 7 9 11 12 12 16 17 17 15 12 14 13 10 9 9 11 19 25 26 27 22 16 15 15 16 16 17 17
56 52 49 48 47 45 45 41 36 33 29 24 19 16 13 8 9 9 11 17 19 19 20 20 18 15 10 12 15 12 9 8 11 16 25 28 28 22 17 15 18 18 19 15
49 45 44 44 45 45 41 35 30 26 22 19 17 16 14 7 12 12 10 13 18 22 20 18 18 12 15 13 9 13 15 12 10 11 20 30 31 28 20 18 20 21 21 19
36 34 34 37 38 37 33 29 26 24 22 21 18 15 11 9 14 14 14 15 18 17 13 17 15 14 16 21 24 20 15 17 14 12 15 26 33 31 29 23 22 24 24 22
33 35 34 31 31 28 26 23 23 25 21 19 21 21 17 15 15 16 15 20 22 18 13 14 10 15 23 27 20 22 22 21 18 17 16 20 34 37 34 28 25 26 27 25
31 33 32 28 28 28 28 24 26 23 21 19 16 19 21 21 19 18 17 22 19 8 13 10 30 25 26 26 27 31 26 24 25 18 21 21 23 39 41 35 31 29 29 30
30 32 31 31 31 30 24 25 24 25 25 23 23 21 21 23 22 17 20 19 13 20 16 23 27 24 30 37 36 32 31 31 22 27 33 27 23 27 40 43 36 33 32 31
28 30 32 35 36 33 28 25 25 27 29 27 25 23 26 25 25 23 23 17 12 25 26 34 44 28 37 39 27 27 29 30 26 27 29 32 22 27 31 44 46 39 35 34
27 30 32 35 30 27 28 30 30 31 32 31 30 28 29 30 32 31 30 33 28 28 34 38 47 44 48 42 22 15 47 35 27 26 24 21 30 29 33 35 47 48 41 39
27 29 35 36 29 30 33 34 35 36 37 36 37 35 37 37 38 39 40 39 43 43 48 53 53 52 50 45 33 35 28 26 34 30 29 37 32 36 31 35 40 49 49 43
27 29 32 34 34 35 35 37 38 41 40 41 45 46 44 44 45 46 47 47 49 53 58 62 57 47 36 34 39 43 44 33 33 37 35 26 32 41 41 34 36 44 52 51
26 28 32 37 37 37 39 43 45 45 46 48 50 50 49 50 52 54 54 54 53 50 46 47 50 50 45 39 41 51 53 45 47 51 36 30 36 36 36 34 39 38 44 53
27 28 32 36 39 40 44 45 47 48 49 51 53 54 55 57 59 60 59 53 45 43 45 45 48 55 57 53 47 50 52 58 54 57 55 48 40 44 37 37 42 39 37 44
26 28 31 35 35 39 42 43 44 49 52 56 58 59 60 62 60 55 52 51 51 50 51 53 55 57 61 64 66 62 60 60 69 69 61 61 56 43 45 45 37 35 34 33
30 30 32 37 37 42 43 44 48 52 56 59 62 65 62 56 56 57 58 60 62 62 61 60 60 61 64 67 70 72 73 72 70 73 74 68 69 67 52 47 45 35 25 26
34 38 39 42 43 45 44 49 53 59 63 64 61 57 58 60 62 63 67 71 68 67 66 68 68 67 69 73 77 80 82 80 79 78 76 75 74 73 73 61 50 52 45 45
41 43 44 44 46 48 52 56 60 62 56 55 59 61 65 66 66 70 73 73 71 72 74 74 74 75 76 78 79 77 80 80 78 78 77 78 75 78 80 78 63 61 62 61
44 46 48 51 53 53 56 60 59 54 55 58 64 67 66 69 74 77 78 75 79 81 84 82 79 82 84 82 74 70 68 69 70 73 75 75 77 79 83 84 77 70 70 69
47 49 54 58 60 54 47 50 56 57 59 63 65 66 69 72 73 75 80 82 86 88 88 89 86 80 72 68 62 58 56 57 58 63 68 73 74 78 80 85 85 79 77 73
53 52 49 50 50 50 52 54 56 61 63 64 67 71 72 74 77 83 88 91 89 87 82 78 71 64 57 55 50 46 48 47 47 51 60 67 72 77 79 81 85 84 83 78
41 43 47 49 50 53 54 56 61 64 67 70 70 73 77 80 85 86 87 87 83 75 64 54 49 46 44 40 38 38 40 41 41 43 50 59 66 74 79 80 84 85 85 82
42 46 50 51 55 58 62 64 67 68 67 70 74 80 85 84 86 84 79 71 60 51 44 37 33 32 34 34 32 32 33 35 36 39 44 51 62 71 78 81 84 84 88 90
50 52 54 56 59 61 63 63 64 66 71 77 80 82 86 79 69 59 51 45 39 35 30 26 26 27 31 34 36 38 37 33 33 35 39 45 55 70 78 84 84 84 90 90
Wind_Direction
234 239 243 248 254 258 263 269 273 276 281 286 293 296 297 296 294 291 294 307 315 325 328 334 338 350 2 349 307 245 264 246 234 222 216 238 241 244 239 246 247 248 239 242
238 241 246 250 254 259 264 269 274 278 282 286 290 292 290 283 278 295 306 313 330 336 339 348 358 345 351 359 347 274 255 250 235 226 216 230 246 236 242 244 247 251 244 239
239 242 248 253 257 260 264 269 273 276 282 286 286 283 272 282 291 308 311 320 333 351 356 356 359 353 345 347 351 337 293 238 237 231 218 214 225 237 260 258 265 251 228 233
242 246 248 251 255 259 263 266 271 279 278 274 269 265 260 252 283 296 304 307 335 357 357 352 355 357 345 342 334 326 304 264 240 238 221 212 217 227 244 252 253 228 226 225
242 244 248 252 254 258 262 268 271 266 267 258 252 245 247 255 262 278 306 330 345 351 349 350 345 352 348 344 338 321 301 287 265 238 221 215 220 229 240 244 242 227 216 213
243 247 250 251 255 258 261 261 252 252 240 239 241 248 237 250 283 287 318 338 348 348 337 335 326 308 339 339 345 329 320 296 281 251 231 219 221 223 229 241 237 237 220 212
237 235 237 242 245 247 244 238 235 232 231 231 233 238 245 260 272 287 304 324 333 323 319 310 306 333 327 336 343 332 318 308 279 260 240 227 221 225 226 230 237 235 231 215
228 224 228 233 237 235 229 222 223 231 226 236 230 241 252 278 278 298 317 322 323 311 293 298 309 336 338 320 312 321 311 305 297 284 259 230 224 225 224 226 233 239 235 231
221 223 221 220 223 219 220 218 224 230 234 239 239 253 259 271 277 297 313 325 302 260 318 178 259 297 316 310 314 310 293 299 297 296 291 269 237 224 226 228 229 235 233 234
214 219 216 202 216 222 224 230 235 242 242 246 248 258 274 278 285 308 323 326 303 209 202 228 267 293 302 296 301 289 286 286 290 300 301 282 266 246 226 225 228 231 233 232
214 216 212 216 210 214 222 239 251 256 256 252 258 268 277 284 294 309 312 301 299 230 224 230 245 285 294 301 298 305 287 280 291 293 283 284 277 263 251 228 225 228 232 232
210 211 216 222 221 227 234 242 252 263 267 273 269 273 283 294 297 298 298 293 284 261 237 243 255 264 276 282 270 239 276 287 279 301 278 298 274 281 257 243 229 226 227 231
210 215 220 227 223 232 243 249 256 264 271 276 280 287 290 293 293 292 291 289 288 281 274 271 272 274 272 270 256 226 234 295 266 263 270 272 265 275 272 252 240 230 225 227
219 224 229 232 235 239 250 259 265 270 274 280 285 286 289 289 288 288 288 287 285 283 285 285 283 278 270 256 243 233 236 241 233 246 260 271 249 260 270 260 249 239 230 226
230 231 237 241 241 247 254 259 265 271 277 281 283 285 285 284 285 286 286 283 281 279 280 285 287 284 274 257 238 231 237 241 237 221 244 261 269 255 261 249 249 244 238 231
236 238 244 250 255 256 259 264 272 275 279 279 281 282 283 284 285 284 281 280 276 277 274 271 274 279 281 276 264 257 249 238 240 245 248 236 243 255 250 256 248 246 241 239
239 248 253 256 258 263 268 274 275 277 278 282 283 285 287 287 285 283 284 287 285 280 276 275 276 276 277 279 280 272 262 249 240 241 241 244 239 242 247 251 246 244 244 250
258 258 259 265 268 271 275 276 277 279 282 285 288 290 289 286 285 288 291 292 290 288 286 283 280 278 275 273 272 271 268 262 253 239 238 238 240 237 234 235 237 223 239 250
262 265 267 270 273 275 277 279 280 283 285 288 288 286 286 287 289 292 292 292 292 292 289 286 282 277 273 269 267 267 266 264 259 255 243 238 235 236 233 226 225 217 201 213
264 266 270 272 273 276 279 281 281 283 285 284 287 287 289 290 289 289 290 292 291 289 288 287 285 282 277 273 270 267 265 261 258 253 247 243 238 234 234 230 221 212 205 206
267 271 272 273 274 276 279 280 280 280 282 284 286 288 290 291 292 295 295 294 294 294 294 289 286 283 282 280 274 268 263 259 255 252 248 243 237 231 230 231 226 214 209 207
268 272 276 279 281 281 277 276 279 283 286 288 287 287 289 291 291 290 289 291 292 291 291 290 289 287 281 278 275 271 266 259 254 249 246 241 234 230 225 226 225 216 211 209
275 274 275 278 279 279 280 283 284 285 287 287 288 290 290 290 290 290 291 292 291 291 290 289 287 283 281 277 275 268 263 259 252 246 241 237 231 227 225 222 221 217 211 209
276 279 279 279 281 282 284 284 284 286 287 290 290 290 290 290 291 293 293 291 292 291 290 287 283 282 281 278 272 264 261 257 252 245 240 235 227 223 222 220 217 216 210 207
279 279 280 282 284 287 288 288 290 292 292 291 291 292 294 295 296 293 291 289 288 288 286 282 278 281 285 288 282 272 264 259 251 244 240 233 224 220 219 218 215 213 209 206
279 278 279 282 284 287 288 290 290 292 293 294 296 298 298 300 299 294 289 288 286 282 279 281 284 285 284 286 287 282 273 262 254 246 235 232 225 218 216 215 214 210 208 207
Height
10966 10969 10971 10974 10976 10977 10977 10977 10977 10978 10979 10980 10977 10973 10974 10970 10967 10968 10968 10968 10965 10962 10959 10957 10952 10950 10948 10947 10945 10945 10946 10949 10951 10955 10959 10963 10966 10969 10968 10968 10970 10971 10974 10974
10959 10961 10964 10967 10969 10969 10970 10971 10972 10973 10974 10974 10973 10969 10968 10967 10966 10963 10962 10964 10963 10960 10957 10954 10952 10948 10947 10945 10944 10943 10943 10944 10947 10950 10954 10958 10961 10965 10967 10968 10968 10968 10970 10971
10949 10953 10957 10960 10961 10963 10963 10966 10966 10967 10968 10968 10966 10966 10964 10965 10963 10961 10958 10958 10959 10959 10956 10954 10953 10950 10946 10945 10941 10940 10939 10940 10943 10946 10951 10954 10955 10958 10962 10963 10964 10963 10965 10968
10942 10946 10950 10952 10954 10955 10958 10958 10961 10963 10961 10960 10960 10962 10964 10962 10960 10959 10956 10955 10956 10955 10954 10954 10952 10950 10947 10944 10941 10940 10940 10939 10939 10941 10945 10948 10951 10954 10956 10958 10960 10961 10962 10965
10931 10937 10942 10944 10945 10947 10949 10953 10955 10952 10953 10952 10955 10957 10956 10955 10956 10956 10954 10952 10954 10954 10952 10951 10949 10948 10945 10943 10942 10941 10940 10939 10938 10938 10940 10945 10948 10950 10951 10953 10955 10957 10960 10961
10926 10932 10933 10935 10937 10939 10942 10945 10944 10946 10947 10950 10949 10949 10951 10949 10950 10953 10957 10958 10955 10952 10947 10945 10943 10942 10944 10943 10939 10938 10939 10937 10935 10936 10937 10941 10945 10947 10948 10950 10951 10953 10957 10959
10920 10923 10923 10926 10928 10932 10934 10936 10937 10940 10943 10947 10946 10946 10946 10949 10950 10952 10954 10955 10949 10944 10941 10938 10936 10938 10938 10939 10937 10932 10929 10931 10931 10929 10931 10934 10939 10942 10946 10946 10948 10950 10952 10956
10912 10913 10915 10920 10923 10926 10928 10931 10933 10933 10938 10940 10943 10942 10943 10945 10947 10948 10951 10947 10943 10940 10935 10937 10931 10931 10935 10933 10929 10928 10927 10926 10928 10931 10928 10927 10930 10935 10939 10942 10944 10946 10949 10950
10906 10907 10910 10914 10917 10919 10921 10926 10927 10930 10933 10935 10938 10938 10939 10940 10943 10942 10945 10941 10932 10931 10929 10941 10927 10924 10925 10928 10926 10926 10925 10923 10925 10927 10929 10927 10924 10926 10932 10937 10939 10942 10945 10948
10900 10902 10906 10907 10911 10914 10920 10921 10924 10924 10927 10930 10932 10934 10933 10932 10934 10938 10937 10933 10926 10920 10917 10920 10915 10919 10922 10924 10924 10922 10921 10922 10918 10922 10925 10925 10924 10924 10924 10930 10933 10936 10938 10943
10896 10900 10901 10903 10902 10908 10915 10917 10918 10916 10917 10922 10925 10928 10925 10927 10929 10930 10926 10925 10926 10920 10912 10908 10906 10911 10918 10921 10926 10927 10925 10919 10913 10914 10917 10918 10916 10918 10920 10921 10926 10929 10932 10935
10893 10897 10899 10899 10906 10909 10909 10908 10907 10905 10908 10912 10915 10919 10919 10919 10916 10917 10918 10914 10916 10915 10912 10911 10910 10916 10915 10919 10923 10928 10913 10919 10908 10908 10913 10910 10905 10909 10913 10913 10916 10922 10925 10929
10890 10892 10893 10895 10903 10903 10902 10901 10899 10900 10900 10903 10904 10908 10908 10908 10907 10905 10904 10902 10897 10898 10898 10897 10898 10901 10903 10903 10907 10903 10903 10894 10899 10906 10906 10901 10901 10900 10901 10906 10907 10911 10916 10921
10885 10888 10889 10892 10894 10895 10894 10894 10893 10890 10895 10896 10895 10895 10897 10897 10895 10893 10890 10887 10883 10876 10874 10872 10875 10878 10881 10885 10884 10881 10871 10869 10881 10891 10889 10890 10894 10895 10896 10894 10899 10902 10904 10912
10881 10885 10883 10883 10887 10890 10889 10885 10883 10883 10886 10885 10882 10883 10884 10884 10881 10879 10876 10874 10872 10870 10864 10855 10848 10850 10858 10866 10866 10865 10864 10866 10873 10877 10874 10880 10885 10886 10885 10885 10887 10892 10893 10902
10876 10878 10878 10877 10879 10881 10878 10878 10877 10874 10873 10869 10868 10868 10868 10867 10864 10861 10860 10860 10859 10858 10854 10849 10842 10835 10833 10841 10849 10849 10850 10851 10850 10852 10858 10863 10868 10872 10873 10875 10878 10883 10887 10894
10870 10870 10870 10869 10872 10870 10868 10868 10868 10860 10857 10852 10852 10851 10851 10845 10840 10837 10838 10841 10841 10840 10840 10837 10834 10828 10821 10815 10813 10818 10822 10826 10828 10833 10838 10838 10845 10849 10859 10869 10873 10878 10888 10892
10860 10861 10861 10860 10862 10859 10859 10858 10852 10847 10844 10841 10837 10832 10828 10823 10820 10820 10820 10818 10817 10817 10816 10815 10812 10809 10805 10800 10795 10793 10793 10794 10799 10807 10812 10818 10823 10831 10840 10846 10858 10868 10879 10887
10852 10851 10851 10849 10850 10849 10850 10842 10839 10831 10827 10826 10821 10816 10811 10807 10801 10801 10796 10792 10790 10789 10787 10786 10785 10785 10782 10777 10773 10767 10765 10766 10767 10772 10781 10793 10801 10808 10818 10825 10834 10849 10856 10853
10841 10841 10840 10840 10838 10838 10833 10828 10822 10819 10817 10808 10802 10797 10794 10791 10786 10782 10777 10773 10771 10766 10761 10758 10753 10751 10748 10745 10744 10745 10739 10738 10739 10743 10749 10758 10772 10783 10791 10804 10813 10822 10829 10836
10830 10829 10827 10825 10825 10827 10822 10814 10806 10802 10802 10797 10790 10783 10777 10771 10764 10756 10747 10743 10738 10736 10730 10725 10724 10718 10710 10705 10706 10708 10710 10710 10713 10716 10723 10732 10741 10753 10763 10773 10788 10800 10809 10819
10820 10817 10812 10809 10805 10807 10805 10801 10794 10791 10786 10780 10773 10769 10763 10756 10748 10740 10730 10726 10721 10714 10703 10692 10687 10683 10677 10673 10675 10677 10678 10681 10685 10688 10693 10700 10709 10721 10734 10748 10761 10778 10788 10798
10805 10803 10800 10795 10791 10792 10789 10786 10782 10774 10768 10761 10755 10750 10744 10737 10727 10716 10709 10700 10691 10685 10678 10668 10661 10655 10652 10649 10652 10653 10653 10655 10659 10662 10665 10671 10682 10694 10707 10721 10736 10752 10767 10781
10791 10789 10784 10779 10777 10775 10774 10770 10764 10759 10753 10745 10737 10730 10722 10714 10704 10693 10682 10671 10665 10657 10651 10646 10641 10638 10633 10634 10633 10634 10634 10636 10639 10642 10644 10648 10660 10672 10685 10698 10712 10729 10748 10762
10781 10774 10769 10768 10760 10757 10751 10747 10742 10737 10731 10724 10715 10706 10696 10686 10677 10663 10654 10645 10641 10636 10633 10631 10629 10626 10622 10621 10621 10621 10621 10622 10625 10628 10629 10632 10639 10650 10665 10679 10692 10711 10725 10739
10764 10761 10757 10754 10749 10743 10736 10730 10725 10719 10710 10700 10692 10683 10669 10659 10648 10637 10631 10627 10624 10622 10621 10620 10619 10618 10615 10612 10611 10608 10609 10611 10612 10613 10616 10619 10625 10634 10645 10659 10675 10692 10705 10720